[[{"header":{"parameterUnit":"m.s-1","parameterCategory":1,"la1":30.2991,"la2":30.254,"lo1":-89.0895,"lo2":-89.0444,"dy":0.0017,"dx":0.0017,"nx":28,"ny":28,"refTime":"2024-04-09T03:00:00:Z","depth":0,"parameterNumber":2,"parameterNumberName":"U-component_of_WINDS"},"data":[0,0,0,0,0,0,0,0,0,0,0,0,0,0,0,0,0,0,0,0,0,0,0,0,0,0,0,0,0,0,0,0,0,0,0,0,0,0,0,0,0,0,0,0,0,0,0,0,0,0,0,0,0,0,0,0,0,0,-5.0412,-5.0413,0,-5.0497,-5.0498,-5.0499,-5.0502,-5.0501,-5.05,-5.0499,-5.0582,-5.0585,-5.0588,0,0,0,0,0,0,0,0,0,0,0,0,0,-5.0249,-5.0252,-5.0412,-5.0413,-5.0414,-5.0497,-5.0498,-5.0499,-5.0502,-5.0501,-5.0499,-5.0498,-5.0581,-5.0584,-5.0588,0,0,0,0,0,0,0,0,0,0,0,0,0,-5.0325,-5.0253,-5.0412,-5.0426,-5.0428,-5.0497,-5.0498,-5.0499,-5.0502,-5.0501,-5.0499,-5.0498,-5.0579,-5.0584,-5.0589,-5.0648,0,0,-5.0603,-5.0605,0,0,0,0,0,0,0,0,-5.0321,-5.0331,-5.0423,-5.0425,-5.0427,-5.0487,-5.0471,-5.0549,-5.0503,-5.0474,-5.0499,-5.0497,-5.0551,-5.0558,-5.0577,-5.0652,-5.0656,-5.0603,-5.0606,-5.0608,-5.061,0,0,0,0,0,0,0,-5.0316,-5.0327,-5.0445,-5.0424,-5.0427,-5.0426,-5.0436,-5.0486,-5.052,-5.0476,-5.0477,-5.0487,-5.0552,-5.0573,-5.0579,-5.0657,-5.0603,-5.0607,-5.061,-5.0612,-5.0784,-5.0786,0,0,0,0,0,0,-5.0308,-5.0323,-5.0443,-5.0448,-5.0369,-5.0431,-5.0441,-5.0469,-5.0519,-5.0526,-5.0488,-5.0487,-5.0565,-5.0574,-5.0582,-5.0654,-5.0608,-5.0613,-5.0615,-5.0782,-5.0784,-5.0786,0,0,0,0,0,0,-5.0305,-5.0319,-5.0439,-5.0386,-5.0401,-5.0435,-5.0467,-5.0472,-5.0492,-5.0528,-5.0534,-5.0503,-5.0565,-5.0575,-5.0632,-5.0657,-5.0615,-5.0619,-5.078,-5.0783,-5.0785,-5.0799,0,0,0,0,0,0,-5.03,-5.0317,-5.0341,-5.0386,-5.0404,-5.0489,-5.0469,-5.0475,-5.0501,-5.05,-5.0544,-5.055,-5.0564,-5.0625,-5.0637,-5.0663,-5.0623,-5.0778,-5.0781,-5.0785,-5.0796,-5.0802,-5.0806,0,0,0,0,0,-5.0294,-5.0341,-5.0342,-5.0357,-5.0434,-5.049,-5.05,-5.0517,-5.0503,-5.0527,-5.055,-5.0548,-5.0653,-5.0631,-5.0644,-5.0672,-5.0777,-5.0781,-5.0784,-5.0794,-5.0801,-5.0806,0,0,0,0,0,0,-5.0296,-5.0347,-5.0349,-5.0412,-5.0447,-5.049,-5.052,-5.0523,-5.0562,-5.0559,-5.0577,-5.0587,-5.0643,-5.0663,-5.0637,-5.0732,-5.0713,-5.072,-5.0716,-5.0722,-5.0727,-5.072,-5.0627,0,0,0,0,0,-5.0304,-5.0346,-5.0388,-5.0439,-5.0457,-5.0486,-5.0511,-5.0521,-5.0557,-5.0571,-5.0599,-5.0633,-5.0673,-5.0699,-5.0739,-5.08,-5.0809,-5.0826,-5.0831,-5.0835,-5.084,-5.0873,-5.088,-5.0799,-5.0799,-5.0799,0,0,-5.032,-5.0353,-5.0378,-5.0441,-5.0469,-5.0511,-5.0498,-5.0543,-5.0574,-5.0578,-5.0632,-5.0654,-5.0693,-5.0752,-5.078,-5.0771,-5.0865,-5.084,-5.0843,-5.0846,-5.0878,-5.0885,-5.0892,-5.0802,-5.0801,-5.0801,0,0,-5.0371,-5.0401,-5.0447,-5.0476,-5.0519,-5.0539,-5.055,-5.0593,-5.0608,-5.0664,-5.0668,-5.0704,-5.0774,-5.0802,-5.0825,-5.0888,-5.0887,-5.09,-5.0925,-5.0957,-5.0963,-5.0969,-5.099,-5.0997,-5.0906,-5.0906,-5.0906,0,-5.0385,-5.0449,-5.047,-5.0515,-5.0541,-5.055,-5.0595,-5.0622,-5.0675,-5.0693,-5.0683,-5.0771,-5.0799,-5.0863,-5.0879,-5.0898,-5.091,-5.0894,-5.0961,-5.0967,-5.0973,-5.0992,-5.1,-5.0907,-5.0907,-5.0906,-5.0906,0,-5.0464,-5.0509,-5.054,-5.0593,-5.0624,-5.0669,-5.0695,-5.0723,-5.0732,-5.0751,-5.0808,-5.0841,-5.0887,-5.0904,-5.0912,-5.097,-5.0963,-5.0958,-5.0938,-5.0981,-5.1,-5.1008,-5.0908,-5.0908,-5.0908,-5.0907,0,0,-5.0515,-5.058,-5.0591,-5.0615,-5.0665,-5.0699,-5.0744,-5.0791,-5.0814,-5.0852,-5.0889,-5.0949,-5.0944,-5.097,-5.0982,-5.101,-5.1056,-5.1001,-5.1002,-5.1008,-5.112,-5.1123,-5.1131,-5.1057,-5.1059,-5.106,-5.1116,0,-5.057,-5.0652,-5.0672,-5.0741,-5.0782,-5.0791,-5.083,-5.0864,-5.0885,-5.0921,-5.0943,-5.0985,-5.0976,-5.0992,-5.1021,-5.1044,-5.1078,-5.1041,-5.109,-5.1091,-5.1077,-5.1141,-5.1144,-5.1195,-5.1124,-5.1125,-5.1126,0,-5.0643,-5.0684,-5.0757,-5.0802,-5.0819,-5.0855,-5.0899,-5.0934,-5.0973,-5.0986,-5.1016,-5.1025,-5.1071,-5.1053,-5.1116,-5.109,-5.1112,-5.1127,-5.1129,-5.1132,-5.1109,-5.1144,-5.1212,-5.1219,-5.1138,-5.1137,-5.1137,0,-5.0671,-5.0744,-5.0797,-5.0818,-5.0871,-5.0895,-5.0918,-5.0956,-5.0982,-5.1021,-5.1038,-5.1082,-5.1104,-5.1137,-5.1157,-5.1142,-5.1219,-5.1202,-5.1229,-5.1228,-5.1242,-5.1241,-5.1313,-5.1261,-5.1261,-5.126,-5.126,0,-5.0728,-5.0772,-5.081,-5.0843,-5.0892,-5.0915,-5.0963,-5.0987,-5.102,-5.1056,-5.1067,-5.1101,-5.1127,-5.1164,-5.118,-5.1229,-5.124,-5.125,-5.1254,-5.1248,-5.1246,-5.126,-5.1256,-5.1263,-5.1262,-5.1262,-5.1261,0,-5.0766,-5.0794,-5.0852,-5.0899,-5.0911,-5.0946,-5.0985,-5.1016,-5.1038,-5.1083,-5.1096,-5.1129,-5.1173,-5.1197,-5.1252,-5.1263,-5.1318,-5.132,-5.1305,-5.1305,-5.1331,-5.1327,-5.1412,-5.1424,-5.1366,-5.1366,-5.1367,0,-5.08,-5.0834,-5.0885,-5.091,-5.0934,-5.0976,-5.1003,-5.1028,-5.1056,-5.1103,-5.1128,-5.1174,-5.1211,-5.1281,-5.1309,-5.1351,-5.1353,-5.138,-5.1359,-5.1352,-5.1351,-5.1348,-5.1351,-5.1383,-5.1383,-5.1384,-5.1384,0,-5.0855,-5.0868,-5.0908,-5.0953,-5.0986,-5.1022,-5.1058,-5.1078,-5.1108,-5.1139,-5.1185,-5.1214,-5.1272,-5.1316,-5.136,-5.1383,-5.1388,-5.1391,-5.1399,-5.1392,-5.1381,-5.1386,-5.1312,-5.1388,-5.1388,-5.1387,-5.1387,-5.1387,-5.0891,-5.0921,-5.0962,-5.1006,-5.1036,-5.107,-5.1102,-5.1128,-5.1167,-5.1216,-5.1228,-5.1276,-5.1314,-5.1374,-5.1399,-5.1436,-5.143,-5.1443,-5.1445,-5.1447,-5.1447,-5.1378,-5.1444,-5.1444,-5.1444,-5.1444,-5.1444,0,-5.0945,-5.0972,-5.1013,-5.1063,-5.1098,-5.1103,-5.1143,-5.1171,-5.1213,-5.1249,-5.1286,-5.1338,-5.1382,-5.1414,-5.1458,-5.1481,-5.1485,-5.1492,-5.1489,-5.1494,-5.145,-5.1438,-5.1488,-5.1488,-5.1488,-5.1488,-5.1488,-5.1488,-5.0977,-5.1029,-5.1047,-5.1113,-5.114,-5.1188,-5.121,-5.1241,-5.1269,-5.1328,-5.1364,-5.1386,-5.142,-5.1467,-5.1506,-5.1514,-5.1529,-5.1536,-5.1544,-5.1502,-5.1497,-5.1492,-5.1481,-5.1539,-5.1539,-5.1584,-5.1584,-5.1585]},{"header":{"parameterUnit":"m.s-1","parameterCategory":1,"la1":30.2991,"la2":30.254,"lo1":-89.0895,"lo2":-89.0444,"dy":0.0017,"dx":0.0017,"nx":28,"ny":28,"refTime":"2024-04-09T03:00:00:Z","depth":0,"parameterNumber":3,"parameterNumberName":"V-component_of_WINDS"},"data":[0,0,0,0,0,0,0,0,0,0,0,0,0,0,0,0,0,0,0,0,0,0,0,0,0,0,0,0,0,0,0,0,0,0,0,0,0,0,0,0,0,0,0,0,0,0,0,0,0,0,0,0,0,0,0,0,0,0,4.8157,4.8158,0,4.8217,4.8217,4.8218,4.8219,4.8219,4.8218,4.8217,4.8274,4.8276,4.8279,0,0,0,0,0,0,0,0,0,0,0,0,0,4.8042,4.8044,4.8157,4.8158,4.8159,4.8217,4.8217,4.8218,4.822,4.8219,4.8218,4.8217,4.8274,4.8276,4.8279,0,0,0,0,0,0,0,0,0,0,0,0,0,4.8096,4.8045,4.8157,4.8166,4.8168,4.8216,4.8217,4.8218,4.822,4.8219,4.8218,4.8217,4.8273,4.8276,4.8279,4.8321,0,0,4.8289,4.8291,0,0,0,0,0,0,0,0,4.8093,4.81,4.8164,4.8166,4.8167,4.821,4.8198,4.8253,4.822,4.82,4.8217,4.8216,4.8253,4.8258,4.8272,4.8324,4.8326,4.8289,4.8291,4.8293,4.8294,0,0,0,0,0,0,0,4.8089,4.8097,4.818,4.8165,4.8167,4.8167,4.8173,4.8208,4.8232,4.8202,4.8202,4.8209,4.8254,4.8268,4.8273,4.8327,4.8289,4.8292,4.8294,4.8296,4.8418,4.842,0,0,0,0,0,0,4.8084,4.8094,4.8179,4.8182,4.8127,4.817,4.8177,4.8197,4.8232,4.8236,4.821,4.8209,4.8263,4.8269,4.8275,4.8328,4.8293,4.8296,4.8298,4.8417,4.8419,4.842,0,0,0,0,0,0,4.8081,4.8091,4.8176,4.8138,4.8149,4.8173,4.8195,4.8199,4.8213,4.8238,4.8242,4.8221,4.8263,4.827,4.831,4.833,4.8297,4.83,4.8416,4.8418,4.8419,4.8433,0,0,0,0,0,0,4.8078,4.809,4.8107,4.8139,4.8151,4.8211,4.8197,4.8201,4.8219,4.8219,4.8249,4.8253,4.8262,4.8305,4.8314,4.8334,4.8303,4.8414,4.8417,4.8419,4.8431,4.8435,4.8439,0,0,0,0,0,4.8074,4.8107,4.8108,4.8118,4.8173,4.8212,4.8219,4.8231,4.8221,4.8238,4.8254,4.8252,4.8326,4.831,4.8319,4.834,4.8413,4.8416,4.8419,4.8429,4.8434,4.8439,0,0,0,0,0,0,4.8075,4.8111,4.8113,4.8157,4.8182,4.8213,4.8234,4.8236,4.8263,4.8261,4.8273,4.828,4.832,4.8334,4.8315,4.8383,4.8368,4.8373,4.8373,4.8378,4.8382,4.8378,4.8306,0,0,0,0,0,4.8081,4.8111,4.8141,4.8177,4.819,4.821,4.8228,4.8235,4.826,4.827,4.8289,4.8313,4.8342,4.8361,4.8388,4.8433,4.844,4.8452,4.8456,4.8459,4.8463,4.849,4.8496,4.843,4.843,4.843,0,0,4.8092,4.8116,4.8134,4.8178,4.8198,4.8229,4.8219,4.8251,4.8274,4.8275,4.8315,4.8329,4.8357,4.84,4.8419,4.8412,4.8483,4.8463,4.8465,4.8468,4.8493,4.8499,4.8505,4.8432,4.8431,4.8431,0,0,4.813,4.815,4.8184,4.8205,4.8236,4.825,4.8258,4.8289,4.8299,4.834,4.8342,4.8368,4.8418,4.8438,4.8455,4.8502,4.8501,4.851,4.8531,4.8556,4.8561,4.8566,4.8584,4.859,4.8514,4.8514,4.8514,0,4.814,4.8187,4.8201,4.8234,4.8254,4.8258,4.8293,4.8312,4.835,4.8363,4.8355,4.8418,4.8437,4.8486,4.8497,4.851,4.852,4.8507,4.856,4.8565,4.8569,4.8587,4.8593,4.8515,4.8515,4.8515,4.8515,0,4.8199,4.8232,4.8255,4.8295,4.8317,4.835,4.8369,4.8389,4.8395,4.8409,4.8451,4.8473,4.8507,4.8519,4.8523,4.8568,4.8563,4.8557,4.8542,4.8576,4.8593,4.86,4.8517,4.8516,4.8516,4.8516,0,0,4.8238,4.8286,4.8295,4.8313,4.8349,4.8374,4.8408,4.8443,4.8461,4.8487,4.8516,4.8558,4.8554,4.8573,4.858,4.8602,4.864,4.8593,4.8594,4.8602,4.8692,4.8698,4.8705,4.864,4.8641,4.8642,4.8691,0,4.8281,4.8343,4.8357,4.841,4.8441,4.8446,4.8476,4.8501,4.8515,4.8543,4.8558,4.8589,4.858,4.8592,4.8614,4.8631,4.8658,4.8627,4.8667,4.8668,4.8661,4.8714,4.8719,4.8764,4.8697,4.8698,4.8699,0,4.8338,4.8368,4.8426,4.8459,4.8473,4.8499,4.8533,4.856,4.8588,4.8597,4.8619,4.8624,4.866,4.8643,4.8692,4.8671,4.8688,4.8698,4.87,4.8705,4.8686,4.8721,4.8778,4.8785,4.8709,4.8708,4.8707,0,4.8363,4.8417,4.846,4.8475,4.8514,4.8533,4.855,4.8578,4.8598,4.8627,4.8641,4.8673,4.869,4.8715,4.8728,4.8715,4.8777,4.8761,4.8786,4.8785,4.8799,4.8798,4.8861,4.8808,4.8808,4.8808,4.8808,0,4.8409,4.8444,4.8472,4.8497,4.8537,4.8552,4.8591,4.8607,4.8632,4.8661,4.8666,4.8693,4.8709,4.8738,4.8749,4.8788,4.8796,4.8804,4.8807,4.8804,4.8804,4.8816,4.8814,4.881,4.8809,4.8809,4.8808,0,4.8444,4.8464,4.851,4.8544,4.8554,4.8582,4.8611,4.8636,4.8651,4.8687,4.8697,4.872,4.8754,4.877,4.8812,4.882,4.8865,4.8865,4.8857,4.8858,4.8882,4.888,4.8956,4.8967,4.8906,4.8906,4.8907,0,4.8473,4.8501,4.8539,4.856,4.8578,4.8611,4.8632,4.8648,4.867,4.8706,4.8727,4.8762,4.8791,4.8846,4.8866,4.8898,4.89,4.8924,4.8904,4.8902,4.8902,4.8901,4.8904,4.8928,4.8928,4.8929,4.8929,0,4.8523,4.8532,4.8564,4.86,4.8626,4.8654,4.8682,4.8698,4.8719,4.8743,4.878,4.8803,4.8847,4.8882,4.8916,4.8933,4.8935,4.8935,4.8943,4.8942,4.8936,4.8941,4.8868,4.8934,4.8933,4.8933,4.8933,4.8933,4.8557,4.8583,4.8614,4.865,4.8673,4.8699,4.8726,4.8745,4.8776,4.8815,4.8821,4.8861,4.8889,4.8936,4.8954,4.8984,4.8978,4.8989,4.8992,4.8995,4.8997,4.8931,4.899,4.899,4.899,4.8989,4.8989,0,4.8609,4.863,4.8663,4.8703,4.8731,4.8732,4.8763,4.8786,4.8821,4.8848,4.8878,4.892,4.8955,4.8978,4.9013,4.9033,4.9035,4.9041,4.9041,4.9045,4.8999,4.899,4.9039,4.9039,4.9039,4.9039,4.9039,4.9039,4.8639,4.8683,4.8696,4.8752,4.8772,4.8812,4.883,4.8854,4.8876,4.8924,4.8954,4.8969,4.8995,4.9032,4.9063,4.9069,4.9082,4.909,4.9096,4.9053,4.9048,4.9043,4.9034,4.9092,4.9092,4.9139,4.9139,4.914]}]]